This is the latest recevied weather packets stored in our database for station/object N7ZAP. If no packets are shown the sender has not sent any weather packets the latest 10 day(s).
| Time | Temp. | Humidity | Pressure | Rain* | Wind** | Luminosity | Snow |
|---|---|---|---|---|---|---|---|
| 1777683215 | 12.22° C | 65% | 1018 hPa | 0 mm | - | - | - |
| 1777682912 | 12.22° C | 62% | 1018.1 hPa | 0 mm | - | - | - |
| 1777682608 | 12.78° C | 61% | 1018.2 hPa | 0 mm | - | - | - |
| 1777682306 | 13.33° C | 63% | 1018.3 hPa | 0 mm | - | - | - |
| 1777682003 | 12.78° C | 63% | 1018.3 hPa | 0 mm | - | - | - |
| 1777681699 | 12.78° C | 63% | 1018.1 hPa | 0 mm | - | - | - |
| 1777681396 | 12.22° C | 64% | 1018.4 hPa | 0 mm | - | - | - |
| 1777681094 | 12.22° C | 63% | 1018.5 hPa | 0 mm | - | - | - |
| 1777680791 | 12.22° C | 65% | 1018.5 hPa | 0 mm | - | - | - |
| 1777680489 | 12.78° C | 67% | 1018.9 hPa | 0 mm | - | - | - |
| 1777680187 | 12.22° C | 70% | 1018.5 hPa | 0 mm | - | - | - |
| 1777679882 | 12.22° C | 69% | 1018.5 hPa | 0 mm | - | - | - |
| 1777679578 | 12.78° C | 69% | 1018.4 hPa | 0 mm | - | - | - |
| 1777679274 | 12.78° C | 64% | 1018.3 hPa | 0 mm | - | - | - |
| 1777678971 | 12.78° C | 65% | 1018.1 hPa | 0 mm | - | - | - |
| 1777678669 | 12.78° C | 68% | 1018.2 hPa | 0 mm | - | - | - |
| 1777678366 | 12.78° C | 65% | 1018 hPa | 0 mm | - | - | - |
| 1777678062 | 12.78° C | 70% | 1017.8 hPa | 0 mm | - | - | - |
| 1777677759 | 12.78° C | 75% | 1018 hPa | 0 mm | - | - | - |
| 1777677457 | 11.67° C | 82% | 1017.8 hPa | 0 mm | - | - | - |
| 1777677155 | 11.67° C | 79% | 1018 hPa | 0 mm | - | - | - |
| 1777676853 | 10.56° C | 84% | 1018.1 hPa | 0 mm | - | - | - |
| 1777676551 | 10° C | 86% | 1018.2 hPa | 3.05 mm | - | - | - |
| 1777676249 | 10° C | 86% | 1018.1 hPa | 7.87 mm | - | - | - |
| 1777675946 | 9.44° C | 87% | 1018.4 hPa | 6.1 mm | - | - | - |
* Rain latest hour (hover to see other rain measurements)
** Current wind speed in m/s (hover to see current wind gust speed)